Weather History for Osoyoos, British Columbia

Change the Weather History Date:

Sunday, December 29, 2013

  Actual Average Record
Temperature  
Mean Temperature 28 °F -  
Max Temperature 32 °F - - ()
Min Temperature 24 °F - - ()
Degree Days  
Heating Degree Days 37    
Moisture  
Dew Point 26 °F    
Average Humidity 91    
Maximum Humidity 99    
Minimum Humidity 74    
Precipitation  
Precipitation 0.02 in - - ()
Sea Level Pressure  
Sea Level Pressure 30.38 in    
Wind  
Wind Speed 4 mph ()    
Max Wind Speed 8 mph    
Max Gust Speed -    
T = Trace of Precipitation, MM = Missing Value Source: Averaged Metar Reports

Daily Weather History Graph

Daily Weather History Graph

Search for Another Location

Airport:

Trip Planner

Search our weather history database for the weather conditions in past years. The results will help you decide how hot, cold, wet, or windy it might be!

Date:

Astronomy

Dec. 29, 2013 Rise Set
Actual Time 7:51 AM PST 4:08 PM PST
Civil Twilight 7:14 AM PST 4:45 PM PST
Nautical Twilight 6:34 AM PST 5:26 PM PST
Astronomical Twilight 5:55 AM PST 6:04 PM PST
Moon 4:33 AM PST (12/29) 1:56 PM PST (12/29)
Length of Visible Light 9h 31m
Length of Day
8h 16m
Waning Crescent, 10% of the Moon is Illuminated
Dec 29
Waning Crescent
Jan 1
New
Jan 7
First Quarter
Jan 15
Full
Jan 23
Last Quarter

Hourly Weather History & Observations

Time (PST) Temp. Windchill Dew Point Humidity Pressure Visibility Wind Dir Wind Speed Gust Speed Precip Events Conditions
12:00 AM 25.5 °F 21.3 °F 25.3 °F 99% 30.49 in - South 3.5 mph - N/A   Unknown
1:00 AM 24.8 °F 19.1 °F 24.6 °F 99% 30.47 in - SSE 4.6 mph - N/A   Unknown
2:00 AM 25.2 °F 20.9 °F 25.0 °F 99% 30.44 in - SE 3.5 mph - N/A   Unknown
3:00 AM 25.5 °F 17.8 °F 25.2 °F 99% 30.43 in - SE 6.9 mph - N/A   Unknown
4:00 AM 26 °F - 26 °F 99% 30.42 in - SSE 6.9 mph - -  
4:00 AM 26.1 °F 18.4 °F 25.9 °F 99% 30.42 in - SSE 6.9 mph - N/A   Unknown
5:00 AM 26.4 °F 19.8 °F 26.1 °F 99% 30.40 in - SSE 5.8 mph - N/A   Unknown
6:00 AM 27.0 °F 18.7 °F 25.9 °F 96% 30.39 in - SSE 8.1 mph - N/A   Unknown
7:00 AM 27.5 °F 20.2 °F 25.9 °F 94% 30.37 in - SE 6.9 mph - N/A   Unknown
8:00 AM 27.9 °F 21.5 °F 25.7 °F 92% 30.38 in - SE 5.8 mph - N/A   Unknown
9:00 AM 28.0 °F 24.2 °F 26.2 °F 93% 30.40 in - SE 3.5 mph - 0.01 in   Unknown
10:00 AM 28 °F - 26 °F 90% 30.40 in - SSE 6.9 mph - -  
10:00 AM 28.2 °F 21.0 °F 26.2 °F 92% 30.40 in - SSE 6.9 mph - 0.02 in   Unknown
11:00 AM 29.1 °F 22.1 °F 26.2 °F 89% 30.39 in - SE 6.9 mph - N/A   Unknown
12:00 PM 30.7 °F 26.0 °F 26.6 °F 85% 30.36 in - SSE 4.6 mph - N/A   Unknown
1:00 PM 31.6 °F 26.0 °F 26.1 °F 80% 30.32 in - SSE 5.8 mph - N/A   Unknown
2:00 PM 31.8 °F 26.2 °F 26.8 °F 82% 30.32 in - SSE 5.8 mph - N/A   Unknown
3:00 PM 32.0 °F 26.4 °F 26.6 °F 80% 30.31 in - SSE 5.8 mph - N/A   Unknown
4:00 PM 31 °F - 26 °F 74% 30.31 in - South 4.6 mph - -  
4:00 PM 30.6 °F 25.8 °F 25.9 °F 83% 30.31 in - South 4.6 mph - N/A   Unknown
5:00 PM 28.8 °F 25.0 °F 24.8 °F 85% 30.32 in - SE 3.5 mph - N/A   Unknown
6:00 PM 28.0 °F 24.2 °F 24.6 °F 87% 30.33 in - South 3.5 mph - N/A   Unknown
7:00 PM 26.2 °F - 23.5 °F 90% 30.33 in - SSW 1.2 mph - N/A   Unknown
8:00 PM 25.0 °F - 23.2 °F 93% 30.35 in - South 1.2 mph - N/A   Unknown
9:00 PM 26.4 °F - 24.3 °F 92% 30.36 in - South 2.3 mph - N/A   Unknown
10:00 PM 28 °F - 26 °F 86% 30.38 in - SSE 1.2 mph - -  
10:00 PM 27.7 °F - 25.5 °F 92% 30.38 in - SSE 1.2 mph - N/A   Unknown
11:00 PM 28.6 °F - 25.7 °F 89% 30.37 in - SE 2.3 mph - N/A   Unknown